www.pogodaiklimat.ru

Погода и климат >> Архив погоды >> Таиланд >> Сураттхани


ПОГОДА в Сураттхани

  • Прогноз погоды в Сураттхани
  • Монитор погоды в Сураттхани

АРХИВ ПОГОДЫ в Сураттхани

Время (UTC), дата Ветер
(напр.,м/с)
 
Видим.   Явления Облачность Т
(С)
Тd
(С)
f
(%)
Тe
(С)
Тes
(С)
Комфортность P
(гПа)
Po
(гПа)
Тmin
(С)
Tmax
(С)
R
(мм)
R24
(мм)
S
(см)
18 14.05 штиль 0 8000 м дымка {дождь} 8/1 600 м
[Cu hum Ac lent Cs]
+26.0 +25.3 96 +38 +38 очень
душно
1009.8 1009.0 0.3
21 14.05 штиль 0 8000 м дымка 8/1 600 м
[Cu hum Ac lent Cs]
+25.5 +24.9 96 +36 +36 очень
душно
1008.8 1008.0
00 15.05 штиль 0 8000 м дымка 5/1 600 м
[Cu hum Cs]
+25.2 +24.8 98 +36 +37 очень
душно
1010.3 1009.5 +24.9
03 15.05 штиль 0 10 км 5/1 600 м
[Cu med, cong Cs]
+31.0 +26.1 75 +46 +62 опасность
перегрева
1011.4 1010.6
06 15.05 ЮВ 2 10 км 6/4 600 м
[Cu med, cong Ac lent Cs]
+35.0 +24.4 54 +47 +58 опасность
перегрева
1008.8 1008.0
09 15.05 Ю 2 10 км гроза, ливневой дождь 10/3 300 м
[Cb cap Ac As]
+26.0 +24.6 92 +37 +38 очень
душно
1008.6 1007.8 10
12 15.05 В 1 9000 м дымка {гроза, дождь} 10/3 300 м
[Cu Sc Ac As]
+25.5 +24.8 96 +36 +36 очень
душно
1009.7 1008.9 +36.0 0.2
15 15.05 штиль 0 8000 м дымка {дождь} 10/3 600 м
[Cu Sc Ac As]
+25.6 +25.0 96 +36 +36 очень
душно
1011.1 1010.3 0.1
18 15.05 штиль 0 7000 м дымка {дождь} 8/3 600 м
[Cu med, cong Ac und Cs]
+25.2 +24.6 96 +35 +35 очень
душно
1010.4 1009.6 11
21 15.05 штиль 0 6000 м дымка 6/3 600 м
[Cu hum Ac lent Cs]
+24.8 +24.4 98 +35 +35 очень
душно
1009.1 1008.3
00 16.05 штиль 0 800 м туман 9/1 600 м
[Cu hum Ac trans Cs]
+25.0 +24.6 98 +35 +36 очень
душно
1010.8 1010.0 +24.5 11
03 16.05 Ю 4 8000 м дымка {туман} 10/3 300 м
[Cu med, cong Ac As Cs]
+28.8 +26.4 87 +44 +48 опасность
перегрева
1012.3 1011.5
06 16.05 ЮЗ 6 10 км осадки на расстоянии {туман} 8/3 300 м
[Cb cap Ac As Cs]
+32.1 +26.4 72 +49 +52 опасность
перегрева
1010.8 1010.1
09 16.05 Ю 2 10 км в посл. час дождь {гроза} 10/3 300 м
[Cu Sc Ac As Cs]
+29.5 +26.7 85 +46 +49 опасность
перегрева
1009.8 1009.0 2
12 16.05 З 2 10 км {гроза, дождь} 10/1 600 м
[Cu Sc Ac As Cs]
+27.0 +24.8 88 +39 +39 очень
душно
1010.3 1009.5 +33.2 2
15 16.05 штиль 0 9000 м дымка 8/1 600 м
[Cu hum Ac lent Cs]
+25.5 +24.8 96 +36 +36 очень
душно
1011.9 1011.1
18 16.05 ЮЗ 2 8000 м дымка 6/1 600 м
[Cu hum Ac lent Cs]
+25.0 +24.1 95 +34 +34 очень
душно
1011.0 1010.2
21 16.05 Ю 2 8000 м дымка 8/1 600 м
[Cu hum Ac lent Cs]
+24.4 +23.8 96 +33 +33 очень
душно
1009.4 1008.6
00 17.05 штиль 0 8000 м дымка 5/1 600 м
[Cu med, cong Ac und Cs]
+24.7 +24.4 98 +34 +35 очень
душно
1010.3 1009.5 +24.0 2
03 17.05 штиль 0 10 км 4/1 600 м
[Sc Ac lent Cs]
+31.0 +25.4 72 +45 +60 опасность
перегрева
1011.4 1010.6
06 17.05 Ю 3 10 км 8/4 600 м
[Cu Sc Ac und Cs]
+34.5 +25.4 59 +49 +56 опасность
перегрева
1009.4 1008.7
09 17.05 СЗ 5 10 км 8/5 300 м
[Cu Sc Ac As Cs]
+34.5 +25.4 59 +49 +50 опасность
перегрева
1007.2 1006.4
12 17.05 СЗ 2 8000 м дымка 8/4 600 м
[Cu Sc Ac As Cs]
+31.0 +26.4 77 +47 +47 опасность
перегрева
1008.2 1007.4 +35.5
15 17.05 штиль 0 8000 м дымка 4/3 600 м
[Sc Ac As Cs]
+27.5 +25.4 88 +40 +40 очень
душно
1010.3 1009.5
18 17.05 штиль 0 8000 м дымка 4/1 600 м
[Sc Cs]
+26.4 +25.0 92 +38 +38 очень
душно
1009.6 1008.8
21 17.05 штиль 0 6000 м дымка 4/1 600 м
[Sc Cs]
+25.5 +24.8 96 +36 +36 очень
душно
1008.3 1007.5
00 18.05 штиль 0 7000 м дымка 8/3 600 м
[Cu med, cong Ac und Cs]
+25.2 +24.3 95 +35 +36 очень
душно
1009.1 1008.3 +25.0
03 18.05 штиль 0 9000 м 3/3 600 м
[Cu hum Cs]
+31.0 +25.4 72 +45 +59 опасность
перегрева
1010.5 1009.7
06 18.05 СЗ 6 9000 м осадки на расстоянии 8/4 300 м
[Cb cap Ac As Cs]
+35.0 +25.2 57 +49 +52 опасность
перегрева
1008.9 1008.1
09 18.05 ЮЗ 2 10 км {дождь} 8/4 600 м
[Cu med, cong Ac cuf Cs]
+29.0 +26.6 87 +45 +48 опасность
перегрева
1006.8 1006.1 7
12 18.05 штиль 0 10 км {дождь} 6/3 600 м
[Cu med, cong Ac lent Cs]
+27.5 +26.1 92 +41 +41 опасность
перегрева
1007.7 1006.9 +30.5 7
15 18.05 штиль 0 8000 м дымка 3/1 600 м
[Cu hum Ac lent Cs]
+26.2 +25.0 93 +37 +37 очень
душно
1010.3 1009.5
18 18.05 штиль 0 8000 м дымка 3/1 600 м
[Cu hum Cs]
+25.0 +24.3 96 +35 +35 очень
душно
1009.9 1009.1
21 18.05 штиль 0 6000 м дымка 3/1 600 м
[Cu hum Cs]
+24.6 +24.3 98 +34 +34 очень
душно
1007.4 1006.6
00 19.05 штиль 0 8000 м дымка 6/1 600 м
[Cu med, cong Ac trans Cs]
+24.8 +24.4 98 +35 +35 очень
душно
1009.1 1008.3 +24.3 7
03 19.05 Ю 2 10 км 4/1 600 м
[Cu med, cong Cs]
+31.5 +25.6 71 +46 +58 опасность
перегрева
1010.5 1009.7
06 19.05 СЗ 2 10 км 4/3 600 м
[Cu med, cong Ac lent Cs]
+35.5 +25.1 55 +49 +63 опасность
перегрева
1008.7 1007.9
09 19.05 ЮЗ 4 7000 м гроза, ливневой дождь 10/3 300 м
[Cb cap Ac As]
+27.3 +24.6 85 +39 +40 очень
душно
1008.0 1007.2 8
12 19.05 Ю 2 9000 м дымка {гроза} 9/3 600 м
[Cu med, cong Ac As Cs]
+26.3 +25.3 94 +38 +38 очень
душно
1009.2 1008.4 +36.7 4
15 19.05 штиль 0 7000 м дымка 8/3 600 м
[Cu med, cong Ac As Cs]
+25.7 +25.1 96 +37 +37 очень
душно
1011.4 1010.6
18 19.05 Ю 1 6000 м дымка 10/3 600 м
[Cu med, cong Ac As]
+25.5 +25.1 98 +37 +37 очень
душно
1010.8 1010.0
21 19.05 штиль 0 6000 м дымка 6/1 600 м
[Cu med, cong Ac lent Cs]
+25.1 +24.9 99 +36 +36 очень
душно
1008.7 1007.9
00 20.05 штиль 0 8000 м дымка 5/1 600 м
[Cu hum Ac lent Cs]
+25.0 +24.7 98 +35 +36 очень
душно
1009.9 1009.1 +24.6 12
03 20.05 Ю 3 10 км 1/1 600 м
[Cu hum Ac lent Ci]
+31.4 +25.9 73 +47 +58 опасность
перегрева
1011.0 1010.2
06 20.05 Ю 3 10 км 5/4 300 м
[Cu Sc Cs]
+34.6 +25.7 60 +50 +60 опасность
перегрева
1009.4 1008.6
09 20.05 СЗ 6 10 км гроза без осадков 8/3 300 м
[Cb cap Ac As Cs]
+30.7 +26.1 77 +46 +48 опасность
перегрева
1007.5 1006.7 5
12 20.05 штиль 0 10 км {гроза, дождь} 4/3 600 м
[Cu Sc Ac lent Cs]
+27.2 +25.8 92 +40 +40 очень
душно
1008.1 1007.3 +35.6 5
15 20.05 штиль 0 8000 м дымка 5/3 600 м
[Cu hum Ac lent Cs]
+26.1 +24.5 91 +37 +37 очень
душно
1010.6 1009.8
18 20.05 штиль 0 7000 м дымка 8/1 600 м
[Cu hum Cs]
+25.6 +25.0 96 +36 +36 очень
душно
1010.1 1009.2
21 20.05 штиль 0 6000 м дымка 6/1 600 м
[Cu hum Cs]
+25.4 +24.8 96 +36 +36 очень
душно
1009.1 1008.3
00 21.05 штиль 0 8000 м дымка 6/1 600 м
[Sc Ac lent Cs]
+25.5 +25.2 98 +37 +37 очень
душно
1010.2 1009.4 +25.3 5
03 21.05 З 2 10 км 3/1 600 м
[Sc Cs]
+32.2 +26.8 73 +50 +62 опасность
перегрева
1010.5 1009.7
06 21.05 С 2 10 км 6/3 600 м
[Cu Sc Ac lent Cs]
+35.4 +26.3 59 +51 +63 опасность
перегрева
1008.6 1007.8
09 21.05 ЮВ 3 8000 м осадки на расстоянии 8/4 300 м
[Cu Sc Ac As Cs]
+32.6 +26.6 71 +50 +52 опасность
перегрева
1007.3 1006.5
12 21.05 штиль 0 8000 м дымка {гроза} 6/3 600 м
[Sc Ac lent Cs]
+27.0 +26.3 96 +41 +41 опасность
перегрева
1008.1 1007.3 +36.0 8
15 21.05 штиль 0 8000 м дымка 4/1 600 м
[Sc Ac lent Cs]
+26.0 +25.3 96 +38 +38 очень
душно
1010.7 1009.9

 

Местоположение метеостанции Сураттхани (Таиланд): широта 9.12 долгота 99.15 высота над уровнем моря 11 м.

В архиве по умолчанию представлена погода в Сураттхани за последнюю неделю. Архивные данные за месяц целиком и за предыдущие месяцы, начиная с января 2011 года, Вы можете получить, выбрав интересующий диапазон дат из раскрывающегося списка и нажав кнопку "Ввод!".


*Определитесь, кто Вы:
робот инопланетянин человек

Внимание! Время в таблицах - всемирное. Для получения местного времени необходимо прибавить поправку, которая равна 7 ч.

Смотрите также архив погоды в соседних городах и на ближайших метеорологических станциях:

Погода в Сураттхани Агромете (Таиланд) (53 км)
Погода в Прасанге (Таиланд) (62 км)
Погода в Чаванге (Таиланд) (86 км)
Погода в Самуи (Таиланд) (106 км)
Погода в Накхонситхаммарате 2 (Таиланд) (110 км)
Погода в Такуа Па (Таиланд) (110 км)
Погода в Ранонге (Таиланд) (112 км)
Погода в Виктория-Пойнт (Мьянма) (113 км)
Погода в Краби (Таиланд) (119 км)
Погода в Сави Агромете (Таиланд) (135 км)

Пояснения к столбцам:

Ветер - указаны скорость ветра в м/с - средняя за 10 мин, порывы в срок и между сроками (в фигурных скобках) и направление, откуда дует ветер: С - северный, СВ - северо-восточный, В - восточный, ЮВ - юго-восточный, Ю - южный, ЮЗ - юго-западный, З - западный, СЗ - северо-западный.
Видимость - горизонтальная дальность видимости в метрах или километрах. При видимости от 1 до 10 км при отсутствии осадков обычно наблюдается дымка, при ухудшении видимости до 1 км и менее - туман. В сухую погоду видимость может ухудшаться дымом, пылью или мглою.
Явления - указаны атмосферные явления, наблюдавшиеся в срок или в последний час перед сроком; фигурными скобками обозначены явления, наблюдавшиеся между сроками (за 1-3 часа до срока); квадратными скобками обозначены град или гололедные отложения с указанием их диаметра в мм.
Облачность - указаны через наклонную черту общая и нижняя облачность в баллах и высота нижней границы облаков в метрах; квадратными скобками обозначены формы облаков: Ci - перистые, Cs - перисто-слоистые, Cc - перисто-кучевые, Ac - высококучевые, As - высокослоистые, Sc - слоисто-кучевые, Ns - слоисто-дождевые, Cu - кучевые, Cb - кучево-дождевые. Подробнее классификацию облаков см. в Атласе облаков (PDF).
T - Температура воздуха - температура, измеренная на высоте 2 м над землей.
Td - Температура точки росы - температура, при понижении до которой содержащийся в воздухе водяной пар достигнет насыщения.
f - Относительная влажность воздуха - влажноcть воздуха, измеренная на высоте 2 м над землей.
Te - Эффективная температура - температура, которую ощущает одетый по сезону человек в тени. Характеристика душности погоды. При расчете учитывается влияние влажности воздуха и скорости ветра на теплоощущения человека.
Tes - Эффективная температура на солнце - температура, которую ощущает человек, с поправкой на солнечный нагрев. Характеристика знойности погоды. Зависит от высоты солнца над горизонтом, облачности и скорости ветра. Ночью, в пасмурную погоду, а также при ветре 12 м/с и более поправка равна нулю.
P - Атмосферное давление - приведенное к уровню моря атмосферное давление.
Po - Атмосферное давление - измеренное на уровне метеостанции атмосферное давление.
Tmin - Минимальная температура - минимум температуры воздуха на высоте 2 м над землей.
Tmax - Максимальная температура - максимум температуры воздуха на высоте 2 м над землей.
R - Количество осадков - Количество выпавших осадков за период времени, мм. При наведении курсора мыши на число - период времени, за который выпало указанное количество осадков.
R24 - Количество осадков - Количество выпавших осадков за 24 часа, мм.
S - Снежный покров - Высота снежного покрова, см. При наведении курсора мыши на число - состояние снежного покрова и степень покрытия местности в баллах.